GW2192 Weather Reports


Display with metric or nautical units.
time (UTC)temp
F
wind
direction
speed
MPH
gust
MPH
rain 1hr
in
rain 24hr
in
rain mn
in
humidity
%
barometer
mb
20260906232521 96 177 3.0 7.0 0.00 0.00 0.00 20 1016.2
20260906232019 96 0 1.0 5.0 0.00 0.00 0.00 19 1016.2
20260906231541 96 0 0.0 5.0 0.00 0.00 0.00 20 1016.2
20260906231020 96 96 1.0 4.0 0.00 0.00 0.00 20 1016.2
20260906230520 96 275 2.0 5.0 0.00 0.00 0.00 19 1016.2
20260906230038 96 0 1.0 5.0 0.00 0.00 0.00 19 1016.2
20260906225519 96 146 1.0 6.0 0.00 0.00 0.00 18 1016.2
20260906225022 96 186 2.0 6.0 0.00 0.00 0.00 19 1016.2
20260906224549 96 158 1.0 4.0 0.00 0.00 0.00 21 1016.2
20260906224019 96 0 0.0 4.0 0.00 0.00 0.00 20 1016.2
20260906223519 96 154 0.0 8.0 0.00 0.00 0.00 19 1016.2
20260906223043 95 241 0.0 8.0 0.00 0.00 0.00 23 1016.3
20260906222518 96 121 2.0 7.0 0.00 0.00 0.00 19 1016.4
20260906222022 96 86 1.0 7.0 0.00 0.00 0.00 18 1016.4
20260906221545 96 167 1.0 7.0 0.00 0.00 0.00 19 1016.4
20260906221018 96 131 2.0 7.0 0.00 0.00 0.00 18 1016.5
20260906220518 97 103 1.0 6.0 0.00 0.00 0.00 19 1016.5
20260906220038 97 0 1.0 6.0 0.00 0.00 0.00 21 1016.5
20260906215520 97 159 1.0 6.0 0.00 0.00 0.00 19 1016.6
20260906215017 97 154 0.0 5.0 0.00 0.00 0.00 20 1016.7
20260906214545 97 155 1.0 5.0 0.00 0.00 0.00 18 1016.8
20260906214024 97 115 0.0 3.0 0.00 0.00 0.00 18 1016.9
20260906213520 97 32 0.0 4.0 0.00 0.00 0.00 19 1017.0
20260906213042 96 0 1.0 4.0 0.00 0.00 0.00 22 1017.2
20260906212519 96 284 1.0 6.0 0.00 0.00 0.00 18 1017.2
20260906212019 96 241 2.0 6.0 0.00 0.00 0.00 19 1017.3
20260906211547 96 246 1.0 6.0 0.00 0.00 0.00 18 1017.4
20260906211020 96 22 1.0 4.0 0.00 0.00 0.00 18 1017.4
20260906210524 96 283 1.0 4.0 0.00 0.00 0.00 18 1017.5
20260906210058 96 86 0.0 3.0 0.00 0.00 0.00 18 1017.6
20260906205521 96 0 0.0 4.0 0.00 0.00 0.00 22 1017.8
20260906205022 96 346 0.0 4.0 0.00 0.00 0.00 19 1017.9
20260906204543 95 0 1.0 9.0 0.00 0.00 0.00 20 1018.0
20260906204022 95 0 1.0 9.0 0.00 0.00 0.00 17 1018.2
20260906203519 95 259 1.0 7.0 0.00 0.00 0.00 18 1018.2
20260906203044 95 0 0.0 7.0 0.00 0.00 0.00 18 1018.2
20260906202519 95 220 0.0 4.0 0.00 0.00 0.00 18 1018.4
20260906202024 95 0 1.0 4.0 0.00 0.00 0.00 17 1018.4
20260906201541 95 240 1.0 4.0 0.00 0.00 0.00 17 1018.6
20260906201025 95 19 1.0 4.0 0.00 0.00 0.00 18 1018.5
20260906200524 95 0 0.0 4.0 0.00 0.00 0.00 19 1018.5
20260906200050 94 0 0.0 5.0 0.00 0.00 0.00 19 1018.6
20260906195523 95 0 0.0 5.0 0.00 0.00 0.00 18 1018.7
20260906195024 95 53 1.0 6.0 0.00 0.00 0.00 16 1018.8
20260906194543 95 0 0.0 6.0 0.00 0.00 0.00 18 1018.8
20260906194024 95 323 1.0 6.0 0.00 0.00 0.00 19 1018.9
20260906193524 95 351 0.0 4.0 0.00 0.00 0.00 18 1019.0
20260906193042 94 0 0.0 5.0 0.00 0.00 0.00 18 1018.9
20260906192518 94 0 1.0 6.0 0.00 0.00 0.00 21 1018.9
20260906192018 94 0 2.0 6.0 0.00 0.00 0.00 18 1019.1
20260906191547 94 0 1.0 6.0 0.00 0.00 0.00 16 1019.2
20260906191023 94 0 0.0 3.0 0.00 0.00 0.00 18 1019.3
20260906190524 94 0 1.0 8.0 0.00 0.00 0.00 21 1019.4
20260906190046 93 0 0.0 8.0 0.00 0.00 0.00 20 1019.5
20260906185523 93 55 2.0 8.0 0.00 0.00 0.00 18 1019.6
20260906185025 93 0 1.0 6.0 0.00 0.00 0.00 20 1019.7
20260906184544 92 0 1.0 6.0 0.00 0.00 0.00 18 1019.7
20260906184023 93 0 1.0 7.0 0.00 0.00 0.00 18 1019.8
20260906183524 93 333 1.0 7.0 0.00 0.00 0.00 19 1019.9
20260906183042 93 0 0.0 5.0 0.00 0.00 0.00 24 1019.9
20260906182522 92 0 0.0 5.0 0.00 0.00 0.00 20 1020.1
20260906182026 92 0 0.0 6.0 0.00 0.00 0.00 20 1020.1
20260906181543 92 65 1.0 6.0 0.00 0.00 0.00 24 1020.3
20260906181025 91 67 0.0 6.0 0.00 0.00 0.00 20 1020.4
20260906180524 91 335 1.0 4.0 0.00 0.00 0.00 23 1020.6
20260906180040 90 311 0.0 4.0 0.00 0.00 0.00 23 1020.6
20260906175524 90 0 0.0 6.0 0.00 0.00 0.00 29 1020.7
20260906175023 89 0 1.0 6.0 0.00 0.00 0.00 29 1020.7
20260906174544 88 0 0.0 6.0 0.00 0.00 0.00 27 1020.6
20260906174020 88 49 2.0 6.0 0.00 0.00 0.00 28 1020.7
20260906173523 88 0 1.0 5.0 0.00 0.00 0.00 28 1020.7
20260906173051 87 82 0.0 5.0 0.00 0.00 0.00 29 1020.9
20260906172518 87 324 1.0 5.0 0.00 0.00 0.00 31 1020.8
20260906172022 86 66 1.0 6.0 0.00 0.00 0.00 31 1021.1
20260906171541 86 0 2.0 6.0 0.00 0.00 0.00 30 1021.1
20260906171024 85 112 1.0 4.0 0.00 0.00 0.00 35 1021.1
20260906170524 84 61 0.0 4.0 0.00 0.00 0.00 33 1021.2
20260906170047 84 329 0.0 5.0 0.00 0.00 0.00 33 1021.3
20260906165524 83 41 1.0 8.0 0.00 0.00 0.00 33 1021.2
20260906165024 82 0 2.0 8.0 0.00 0.00 0.00 34 1021.4
20260906164544 82 0 0.0 5.0 0.00 0.00 0.00 36 1021.4
20260906164019 82 0 0.0 5.0 0.00 0.00 0.00 34 1021.4
20260906163519 82 51 0.0 3.0 0.00 0.00 0.00 35 1021.4
20260906163043 82 0 0.0 3.0 0.00 0.00 0.00 36 1021.4
20260906162521 82 37 0.0 3.0 0.00 0.00 0.00 36 1021.4
20260906162019 82 56 0.0 3.0 0.00 0.00 0.00 34 1021.4
20260906161540 82 339 1.0 5.0 0.00 0.00 0.00 35 1021.4
20260906161024 82 0 0.0 5.0 0.00 0.00 0.00 34 1021.5
20260906160524 82 0 1.0 5.0 0.00 0.00 0.00 32 1021.4
20260906160045 82 0 0.0 5.0 0.00 0.00 0.00 32 1021.4
20260906155524 82 0 1.0 6.0 0.00 0.00 0.00 31 1021.4
20260906155025 81 0 0.0 6.0 0.00 0.00 0.00 34 1021.3
20260906154549 81 17 1.0 5.0 0.00 0.00 0.00 32 1021.4
20260906154024 81 67 2.0 5.0 0.00 0.00 0.00 32 1021.4
20260906153527 80 67 1.0 4.0 0.00 0.00 0.00 33 1021.4
20260906153041 80 344 1.0 4.0 0.00 0.00 0.00 35 1021.3
20260906152521 80 309 1.0 4.0 0.00 0.00 0.00 34 1021.4
20260906152024 80 0 1.0 5.0 0.00 0.00 0.00 35 1021.4
20260906151546 79 0 1.0 5.0 0.00 0.00 0.00 35 1021.4
20260906151024 79 0 1.0 5.0 0.00 0.00 0.00 35 1021.4
20260906150524 79 316 2.0 9.0 0.00 0.00 0.00 36 1021.5
20260906150049 78 68 1.0 9.0 0.00 0.00 0.00 35 1021.4
20260906145520 77 0 1.0 4.0 0.00 0.00 0.00 36 1021.4
20260906145019 76 0 0.0 2.0 0.00 0.00 0.00 36 1021.5
20260906144543 75 0 0.0 2.0 0.00 0.00 0.00 37 1021.4
20260906144021 74 0 0.0 1.0 0.00 0.00 0.00 38 1021.3
20260906143520 74 0 0.0 1.0 0.00 0.00 0.00 39 1021.4
20260906143057 73 0 0.0 2.0 0.00 0.00 0.00 39 1021.4
20260906142522 72 0 0.0 2.0 0.00 0.00 0.00 41 1021.3
20260906142018 72 0 0.0 2.0 0.00 0.00 0.00 40 1021.3
20260906141541 71 0 0.0 3.0 0.00 0.00 0.00 41 1021.2
20260906141024 71 0 0.0 4.0 0.00 0.00 0.00 42 1021.2
20260906140528 71 0 0.0 4.0 0.00 0.00 0.00 42 1021.3
20260906140047 70 0 0.0 3.0 0.00 0.00 0.00 43 1021.2
20260906135525 70 0 0.0 3.0 0.00 0.00 0.00 43 1021.2
20260906135018 70 0 0.0 3.0 0.00 0.00 0.00 42 1021.2
20260906134550 70 0 0.0 2.0 0.00 0.00 0.00 44 1021.0
20260906134019 70 360 0.0 3.0 0.00 0.00 0.00 43 1020.9
20260906133519 70 0 0.0 3.0 0.00 0.00 0.00 47 1020.8
20260906133047 70 0 0.0 1.0 0.00 0.00 0.00 43 1020.8
20260906132518 70 0 0.0 1.0 0.00 0.00 0.00 41 1020.7
20260906132018 70 0 0.0 1.0 0.00 0.00 0.00 40 1020.6
20260906131554 69 0 0.0 1.0 0.00 0.00 0.00 40 1020.7
20260906131024 69 0 0.0 0.0 0.00 0.00 0.00 41 1020.6
20260906130524 69 0 0.0 0.0 0.00 0.00 0.00 42 1020.6
20260906130047 69 0 0.0 1.0 0.00 0.00 0.00 42 1020.7
20260906125519 69 0 0.0 2.0 0.00 0.00 0.00 41 1020.6
20260906125021 69 0 0.0 2.0 0.00 0.00 0.00 40 1020.6
20260906124542 69 0 0.0 2.0 0.00 0.00 0.00 41 1020.6
20260906124023 69 0 0.0 2.0 0.00 0.00 0.00 41 1020.5
20260906123518 69 0 0.0 2.0 0.00 0.00 0.00 42 1020.5
20260906123048 68 0 0.0 0.0 0.00 0.00 0.00 45 1020.5
20260906122527 68 0 0.0 0.0 0.00 0.00 0.00 46 1020.5
20260906122021 68 0 0.0 0.0 0.00 0.00 0.00 45 1020.6
20260906121547 68 0 0.0 0.0 0.00 0.00 0.00 46 1020.6
20260906121025 68 0 0.0 0.0 0.00 0.00 0.00 47 1020.5
20260906120524 68 0 0.0 0.0 0.00 0.00 0.00 45 1020.4
20260906120044 69 0 0.0 0.0 0.00 0.00 0.00 46 1020.5
20260906115521 69 0 0.0 0.0 0.00 0.00 0.00 46 1020.4
20260906115020 69 0 0.0 0.0 0.00 0.00 0.00 45 1020.5
20260906114542 69 0 0.0 0.0 0.00 0.00 0.00 45 1020.5
20260906114023 69 0 0.0 0.0 0.00 0.00 0.00 45 1020.3
20260906113518 69 0 0.0 0.0 0.00 0.00 0.00 45 1020.3
20260906113046 69 0 0.0 0.0 0.00 0.00 0.00 46 1020.3
20260906112519 69 0 0.0 0.0 0.00 0.00 0.00 46 1020.4
20260906112024 69 0 0.0 0.0 0.00 0.00 0.00 47 1020.5
20260906111545 70 0 0.0 0.0 0.00 0.00 0.00 47 1020.4
20260906111024 70 0 0.0 0.0 0.00 0.00 0.00 47 1020.4
20260906110525 70 0 0.0 0.0 0.00 0.00 0.00 45 1020.3
20260906110044 70 0 0.0 0.0 0.00 0.00 0.00 44 1020.3
20260906105525 71 0 0.0 0.0 0.00 0.00 0.00 45 1020.3
20260906105021 71 0 0.0 0.0 0.00 0.00 0.00 44 1020.4
20260906104542 71 0 0.0 0.0 0.00 0.00 0.00 45 1020.3
20260906104020 71 0 0.0 0.0 0.00 0.00 0.00 45 1020.2
20260906103519 71 0 0.0 0.0 0.00 0.00 0.00 43 1020.2
20260906103042 72 0 0.0 0.0 0.00 0.00 0.00 43 1020.3
20260906102520 72 0 0.0 0.0 0.00 0.00 0.00 43 1020.3
20260906102019 72 0 0.0 0.0 0.00 0.00 0.00 43 1020.2
20260906101544 72 0 0.0 0.0 0.00 0.00 0.00 43 1020.2
20260906101018 72 0 0.0 0.0 0.00 0.00 0.00 43 1020.0
20260906100524 73 0 0.0 0.0 0.00 0.00 0.00 42 1020.1
20260906100043 73 0 0.0 0.0 0.00 0.00 0.00 41 1020.1
20260906095519 73 0 0.0 0.0 0.00 0.00 0.00 41 1020.0
20260906095020 73 0 0.0 0.0 0.00 0.00 0.00 39 1020.0
20260906094541 74 0 0.0 0.0 0.00 0.00 0.00 39 1020.0
20260906094021 74 0 0.0 0.0 0.00 0.00 0.00 38 1020.0
20260906093518 74 0 0.0 0.0 0.00 0.00 0.00 38 1019.9
20260906093043 74 0 0.0 0.0 0.00 0.00 0.00 38 1019.8
20260906092520 74 0 0.0 0.0 0.00 0.00 0.00 38 1019.8
20260906092020 74 0 0.0 0.0 0.00 0.00 0.00 39 1019.8
20260906091539 74 0 0.0 0.0 0.00 0.00 0.00 38 1019.7
20260906091024 74 0 0.0 0.0 0.00 0.00 0.00 38 1019.6
20260906090519 74 0 0.0 0.0 0.00 0.00 0.00 39 1019.6
20260906090045 75 0 0.0 0.0 0.00 0.00 0.00 39 1019.6
20260906085521 75 0 0.0 0.0 0.00 0.00 0.00 38 1019.6
20260906085023 75 0 0.0 1.0 0.00 0.00 0.00 37 1019.6
20260906084541 75 0 0.0 1.0 0.00 0.00 0.00 37 1019.6
20260906084020 76 0 0.0 2.0 0.00 0.00 0.00 36 1019.6
20260906083521 76 0 0.0 3.0 0.00 0.00 0.00 37 1019.8
20260906083044 76 265 0.0 3.0 0.00 0.00 0.00 35 1019.7
20260906082520 76 0 1.0 3.0 0.00 0.00 0.00 35 1019.8
20260906082018 76 0 0.0 3.0 0.00 0.00 0.00 35 1019.8
20260906081547 76 0 0.0 3.0 0.00 0.00 0.00 35 1019.8
20260906081018 76 0 0.0 3.0 0.00 0.00 0.00 35 1019.8
20260906080521 76 0 0.0 3.0 0.00 0.00 0.00 35 1019.8
20260906080044 76 270 1.0 3.0 0.00 0.00 0.00 35 1019.9
20260906075523 76 0 0.0 3.0 0.00 0.00 0.00 35 1020.0
20260906075020 76 0 0.0 3.0 0.00 0.00 0.00 35 1020.0
20260906074542 76 245 0.0 3.0 0.00 0.00 0.00 36 1020.1
20260906074021 75 0 0.0 3.0 0.00 0.00 0.00 36 1020.1
20260906073520 75 360 0.0 3.0 0.00 0.00 0.00 36 1020.1
20260906073041 74 0 0.0 1.0 0.00 0.00 0.00 38 1020.1
20260906072518 74 0 0.0 2.0 0.00 0.00 0.00 37 1020.1
20260906072018 74 0 0.0 2.0 0.00 0.00 0.00 37 1020.1
20260906071552 74 0 0.0 2.0 0.00 0.00 0.00 38 1020.1
20260906071018 74 0 0.0 2.0 0.00 0.00 0.00 38 1020.1
20260906070518 74 186 0.0 1.0 0.00 0.00 0.00 38 1020.1
20260906070044 73 0 0.0 1.0 0.00 0.00 0.00 39 1020.2
20260906065521 74 0 0.0 0.0 0.00 0.00 0.00 39 1020.2
20260906065021 74 0 0.0 0.0 0.00 0.00 0.00 39 1020.3
20260906064543 74 0 0.0 0.0 0.00 0.00 0.00 40 1020.3
20260906064021 75 0 0.0 0.0 0.00 0.00 0.00 39 1020.2
20260906063519 75 0 0.0 0.0 0.00 0.00 0.00 38 1020.3
20260906063043 76 0 0.0 2.0 0.00 0.00 0.00 37 1020.2
20260906062518 76 0 0.0 2.0 0.00 0.00 0.00 36 1020.1
20260906062018 75 0 0.0 2.0 0.00 0.00 0.00 36 1020.0
20260906061546 75 0 0.0 0.0 0.00 0.00 0.00 37 1020.1
20260906061019 75 0 0.0 2.0 0.00 0.00 0.00 38 1020.0
20260906060520 76 0 0.0 2.0 0.00 0.00 0.00 37 1020.0
20260906060039 76 0 0.0 1.0 0.00 0.00 0.00 37 1019.9
20260906055524 76 0 0.0 1.0 0.00 0.00 0.00 38 1019.9
20260906055022 76 0 0.0 1.0 0.00 0.00 0.00 36 1019.7
20260906054546 76 0 0.0 0.0 0.00 0.00 0.00 35 1019.8
20260906054019 76 0 0.0 0.0 0.00 0.00 0.00 35 1019.7
20260906053520 76 0 0.0 0.0 0.00 0.00 0.00 35 1019.6
20260906053042 77 0 0.0 0.0 0.00 0.00 0.00 35 1019.7
20260906052518 77 0 0.0 0.0 0.00 0.00 0.00 35 1019.7
20260906052021 77 0 0.0 0.0 0.00 0.00 0.00 35 1019.7
20260906051547 78 0 0.0 0.0 0.00 0.00 0.00 34 1019.6
20260906051018 78 0 0.0 2.0 0.00 0.00 0.00 34 1019.4
20260906050517 78 0 0.0 2.0 0.00 0.00 0.00 33 1019.5
20260906050110 78 0 0.0 1.0 0.00 0.00 0.00 33 1019.5
20260906045525 78 0 0.0 2.0 0.00 0.00 0.00 32 1019.5
20260906045021 78 0 0.0 2.0 0.00 0.00 0.00 33 1019.5
20260906044542 79 333 0.0 2.0 0.00 0.00 0.00 34 1019.6
20260906044021 79 0 0.0 1.0 0.00 0.00 0.00 32 1019.5
20260906043524 79 0 0.0 2.0 0.00 0.00 0.00 33 1019.6
20260906043039 79 0 0.0 2.0 0.00 0.00 0.00 31 1019.4
20260906042520 80 0 0.0 3.0 0.00 0.00 0.00 31 1019.4
20260906042024 80 0 0.0 3.0 0.00 0.00 0.00 31 1019.4
20260906041545 80 0 0.0 3.0 0.00 0.00 0.00 31 1019.3
20260906041025 80 248 0.0 3.0 0.00 0.00 0.00 30 1019.4
20260906040526 80 0 0.0 4.0 0.00 0.00 0.00 30 1019.3
20260906040048 80 0 0.0 4.0 0.00 0.00 0.00 30 1019.4
20260906035520 80 268 1.0 7.0 0.00 0.00 0.00 30 1019.4
20260906035019 81 258 1.0 7.0 0.00 0.00 0.00 30 1019.5
20260906034543 81 273 2.0 6.0 0.00 0.00 0.00 30 1019.4
20260906034020 81 0 1.0 6.0 0.00 0.00 0.00 30 1019.4
20260906033518 81 233 1.0 6.0 0.00 0.00 0.00 30 1019.3
20260906033040 81 0 1.0 6.0 0.00 0.00 0.00 30 1019.3
20260906032520 82 272 1.0 5.0 0.00 0.00 0.00 29 1019.2
20260906032025 82 298 1.0 7.0 0.00 0.00 0.00 29 1019.2
20260906031545 82 257 1.0 7.0 0.00 0.00 0.00 29 1019.1
20260906031021 82 228 1.0 7.0 0.00 0.00 0.00 29 1018.9
20260906030521 83 0 0.0 7.0 0.00 0.00 0.00 29 1018.8
20260906030043 83 0 0.0 6.0 0.00 0.00 0.00 29 1018.7
20260906025518 83 0 2.0 7.0 0.00 0.00 0.00 28 1018.6
20260906025018 84 261 1.0 7.0 0.00 0.00 0.00 28 1018.6
20260906024542 84 286 1.0 6.0 0.00 0.00 0.00 28 1018.5
20260906024020 84 263 2.0 8.0 0.00 0.00 0.00 28 1018.5
20260906023520 84 259 1.0 8.0 0.00 0.00 0.00 29 1018.4
20260906023044 84 0 1.0 7.0 0.00 0.00 0.00 29 1018.4
20260906022519 84 278 1.0 5.0 0.00 0.00 0.00 29 1018.3
20260906022020 84 267 2.0 5.0 0.00 0.00 0.00 29 1018.3
20260906021550 85 0 0.0 3.0 0.00 0.00 0.00 30 1018.3
20260906021018 85 0 0.0 4.0 0.00 0.00 0.00 30 1018.3
20260906020521 85 261 1.0 4.0 0.00 0.00 0.00 31 1018.2
20260906020042 85 242 1.0 4.0 0.00 0.00 0.00 31 1018.3
20260906015520 86 0 0.0 0.0 0.00 0.00 0.00 31 1018.1
20260906015025 86 0 0.0 0.0 0.00 0.00 0.00 32 1018.1
20260906014543 86 0 0.0 1.0 0.00 0.00 0.00 30 1018.1
20260906014024 86 0 0.0 2.0 0.00 0.00 0.00 30 1018.0
20260906013519 87 0 0.0 3.0 0.00 0.00 0.00 31 1018.0
20260906013044 87 243 0.0 3.0 0.00 0.00 0.00 30 1018.0
20260906012519 87 0 0.0 2.0 0.00 0.00 0.00 30 1018.0
20260906012018 87 0 0.0 3.0 0.00 0.00 0.00 30 1018.1
20260906011542 88 0 0.0 3.0 0.00 0.00 0.00 29 1018.0
20260906011021 88 269 0.0 2.0 0.00 0.00 0.00 29 1018.1
20260906010520 88 0 0.0 4.0 0.00 0.00 0.00 29 1017.9
20260906010050 89 0 0.0 8.0 0.00 0.00 0.00 28 1018.0
20260906005524 89 0 1.0 8.0 0.00 0.00 0.00 27 1018.0
20260906005020 89 251 1.0 4.0 0.00 0.00 0.00 28 1018.0
20260906004542 90 0 0.0 8.0 0.00 0.00 0.00 28 1018.0
20260906004025 90 247 2.0 8.0 0.00 0.00 0.00 27 1018.0
20260906003526 90 251 1.0 6.0 0.00 0.00 0.00 27 1018.0
20260906003045 90 34 1.0 6.0 0.00 0.00 0.00 27 1018.0
20260906002525 90 34 1.0 7.0 0.00 0.00 0.00 27 1018.1
20260906002020 91 262 1.0 8.0 0.00 0.00 0.00 27 1018.0
20260906001542 91 0 1.0 8.0 0.00 0.00 0.00 26 1017.9
20260906001018 92 259 1.0 3.0 0.00 0.00 0.00 26 1017.9
20260906000518 92 0 0.0 10.0 0.00 0.00 0.00 27 1017.9
20260906000041 91 0 1.0 10.0 0.00 0.00 0.00 27 1017.9
20260905235520 91 252 2.0 10.0 0.00 0.00 0.00 27 1017.9
20260905235018 92 291 1.0 4.0 0.00 0.00 0.00 26 1017.9
20260905234540 92 275 1.0 4.0 0.00 0.00 0.00 27 1018.0
20260905234020 92 243 1.0 4.0 0.00 0.00 0.00 26 1017.9
20260905233524 91 0 0.0 4.0 0.00 0.00 0.00 27 1017.9
20260905233043 91 257 0.0 4.0 0.00 0.00 0.00 27 1017.9